Location: Fort Worth, Tx
(32.7431°N, 97.3695°W)
Time: 11:10:00
(UTC-04:00)

NOAA 18 - Visible Passes

Search period start: 21 March 2023 00:00
Search period end: 31 March 2023 00:00
Orbit: 840 x 859 km, 98.9° (Epoch: 21 March)

Date Brightness Start Highest point End Pass type
(mag) Time Alt. Az. Time Alt. Az. Time Alt. Az.
24 Mar 7.9 00:04:59 10° N 00:04:59 10° N 00:05:01 10° N visible
24 Mar 7.8 23:52:32 10° N 23:52:32 10° N 23:52:37 10° N visible
25 Mar 7.8 23:40:05 10° NNE 23:40:05 10° NNE 23:40:06 10° NNE visible
29 Mar 8.0 00:44:42 11° NNW 00:44:42 11° NNW 00:44:58 10° NNW visible
30 Mar 7.9 00:32:15 13° N 00:32:15 13° N 00:32:48 10° N visible
